Location: Ozark
(37.5425°N, 88.7628°W)
Time: 00:06:46
(UTC+00:00)

STARLINK-1039 - Pass Details

Date: 26 January 2020
Orbit: 548 x 551 km, 53.0° (Epoch: 24 February)

Event Time Altitude Azimuth Distance (km) Brightness Sun altitude
Exits shadow 12:08:10 - 247° (WSW) 1,857 5.8 -11.2°
Reaches altitude 10° 12:08:16 10° 247° (WSW) 1,816 5.8 -11.2°
Maximum altitude 12:12:16 48° 323° (NW) 722 3.9 -10.4°
Drops below altitude 10° 12:16:14 10° 38° (NE) 1,804 6.5 -9.6°
Sets 12:18:36 0° 44° (NE) 2,723 7.6 -9.2°
